Volver al catálogo

STARLINK-36808

ActivoComunicacionesSSO
NORAD 67881·PAYLOAD·🇺🇸 United States

Lanzado Feb 21, 2026 desde Vandenberg Space Force Base

Loading…

Próximos Pases (próximas 24 horas)

TLE

ActualizadoSource: CelesTrak SupGP

Época: Sep 14, 2026, 21:08 UTC

1 67881C 26035C   26257.88104167 -.00050261  00000+0 -15606-2 0  2575
2 67881  97.2846 189.8413 0002154  92.8910 274.4500 15.33456017    11

Sigue STARLINK-36808 en tiempo real con AllMySat

Download on the App Store